CE5HRJ Weather Reports


time (UTC)temp
C
wind
direction
speed
KPH
gust
KPH
rain 1hr
cm
rain 24hr
cm
rain mn
cm
humidity
%
barometer
mb
20260506062505 13 302 17.7 41.8 0.03 2.31 0.84 99 1004.1
20260506062005 13 296 22.5 45.1 0.05 2.31 0.84 99 1004.0
20260506061507 13 276 19.3 46.7 0.05 2.31 0.84 99 1004.1
20260506061007 13 140 19.3 46.7 0.13 2.31 0.84 99 1004.3
20260506060505 13 64 19.3 38.6 0.15 2.31 0.84 99 1004.3
20260506044504 13 350 11.3 29.0 1.02 2.16 0.69 99 1004.1
20260506044004 13 321 9.7 27.4 1.04 2.11 0.64 99 1004.1
20260506043506 13 346 11.3 27.4 1.02 1.98 0.51 99 1004.4
20260506043004 13 271 8.0 19.3 1.04 1.88 0.43 99 1004.3
20260506042504 13 10 4.8 12.9 1.02 1.80 0.33 99 1004.5
20260506041005 13 228 0.0 1.6 1.04 1.63 0.15 99 1004.3
20260506040507 13 202 0.0 1.6 1.04 1.55 0.10 99 1004.5
20260506040004 13 348 0.0 8.0 1.14 1.47 0.00 99 1004.8
20260506035504 13 310 0.0 8.0 1.17 1.37 1.37 99 1004.9
20260506035004 13 319 0.0 3.2 1.17 1.27 1.27 99 1004.8
20260506034504 13 328 0.0 4.8 1.09 1.14 1.14 99 1004.8
20260506034004 13 270 0.0 4.8 1.04 1.09 1.09 99 1004.9
20260506033507 13 284 1.6 4.8 0.99 0.99 0.99 99 1004.9
20260506033004 13 264 0.0 1.6 0.84 0.84 0.84 99 1005.0
20260506032504 13 288 0.0 8.0 0.79 0.79 0.79 99 1004.8
20260506032004 13 301 0.0 8.0 0.76 0.76 0.76 99 1004.7
20260506031504 13 307 1.6 9.7 0.66 0.66 0.66 99 1005.0
20260506031004 13 17 1.6 14.5 0.56 0.56 0.56 99 1004.9
20260506030505 13 25 3.2 16.1 0.51 0.51 0.51 99 1004.5
20260506025005 14 331 6.4 16.1 0.10 0.10 0.10 93 1004.8
20260506024504 15 292 3.2 9.7 0.05 0.05 0.05 89 1004.8
20260506024005 15 66 3.2 12.9 0.03 0.03 0.03 87 1004.6
20260506023505 16 307 3.2 19.3 0.00 0.00 0.00 85 1004.5
20260506023007 16 229 4.8 19.3 0.00 0.00 0.00 86 1004.2
20260506022504 15 101 4.8 27.4 0.00 0.00 0.00 85 1004.9
20260506022005 15 315 4.8 27.4 0.00 0.00 0.00 87 1003.9
20260506021504 16 256 9.7 27.4 0.00 0.00 0.00 86 1003.6
20260506021005 16 3 9.7 25.7 0.00 0.00 0.00 84 1004.7
20260506020504 15 297 8.0 14.5 0.00 0.00 0.00 85 1004.7
20260506020004 15 50 4.8 14.5 0.00 0.00 0.00 86 1004.0
20260506015505 15 338 1.6 3.2 0.00 0.00 0.00 90 1004.7
20260506015004 15 113 1.6 3.2 0.00 0.00 0.00 90 1004.4
20260506014505 15 8 0.0 4.8 0.00 0.00 0.00 90 1004.8
20260506014005 15 307 0.0 8.0 0.00 0.00 0.00 90 1004.7
20260506013505 15 297 0.0 11.3 0.00 0.00 0.00 90 1004.8
20260506013004 15 0 4.8 11.3 0.00 0.00 0.00 90 1005.3
20260506012504 15 299 3.2 11.3 0.00 0.00 0.00 90 1005.4
20260506012005 15 42 4.8 11.3 0.00 0.00 0.00 90 1005.2
20260506011505 15 350 4.8 11.3 0.00 0.00 0.00 88 1005.2
20260506011005 15 337 4.8 14.5 0.00 0.00 0.00 88 1005.2
20260506010505 15 158 4.8 14.5 0.00 0.00 0.00 88 1005.1
20260506010004 15 223 6.4 14.5 0.00 0.00 0.00 88 1005.1
20260506005506 15 282 4.8 11.3 0.00 0.00 0.00 88 1005.2
20260506003507 15 69 8.0 19.3 0.00 0.00 0.00 90 1005.4
20260506003005 15 98 8.0 16.1 0.00 0.00 0.00 90 1005.5
20260506002504 15 338 6.4 20.9 0.00 0.00 0.00 90 1005.5
20260506002005 16 112 8.0 25.7 0.00 0.00 0.00 86 1005.5
20260506001504 16 315 9.7 25.7 0.00 0.00 0.00 86 1005.4
20260506001004 16 34 9.7 25.7 0.00 0.00 0.00 85 1005.3
20260506000505 16 292 8.0 24.1 0.00 0.00 0.00 85 1005.5
20260506000005 16 270 9.7 24.1 0.00 0.00 0.00 86 1005.5
20260505235507 16 338 8.0 20.9 0.00 0.00 0.00 86 1005.4
20260505235007 16 330 8.0 20.9 0.00 0.00 0.00 85 1005.3
20260505234504 16 327 8.0 20.9 0.00 0.00 0.00 84 1005.5
20260505234005 16 324 8.0 20.9 0.00 0.00 0.00 84 1005.2
20260505233505 16 341 6.4 22.5 0.00 0.00 0.00 86 1005.4
20260505233005 16 24 8.0 22.5 0.00 0.00 0.00 85 1005.6
20260505232505 16 298 8.0 19.3 0.00 0.00 0.00 84 1005.7
20260505232004 16 131 8.0 19.3 0.00 0.00 0.00 86 1005.6
20260505231505 15 338 6.4 11.3 0.00 0.00 0.00 88 1006.0
20260505231005 16 295 4.8 12.9 0.00 0.00 0.00 86 1005.8
20260505230507 15 87 3.2 12.9 0.00 0.00 0.00 88 1005.7
20260505230004 16 264 4.8 12.9 0.00 0.00 0.00 88 1006.0
20260505225505 16 320 3.2 8.0 0.00 0.00 0.00 86 1005.9
20260505225005 16 336 3.2 9.7 0.00 0.00 0.00 87 1005.9
20260505224505 16 29 1.6 9.7 0.00 0.00 0.00 88 1005.9
20260505224004 16 9 4.8 9.7 0.00 0.00 0.00 88 1006.0
20260505223004 15 250 3.2 8.0 0.00 0.00 0.00 93 1005.8
20260505215007 15 35 9.7 16.1 0.00 0.00 0.00 93 1006.2
20260505214507 15 158 6.4 16.1 0.00 0.00 0.00 93 1006.2
20260505214005 15 300 8.0 16.1 0.00 0.00 0.00 93 1006.2
20260505213505 15 35 8.0 16.1 0.00 0.00 0.00 93 1006.1
20260505213004 15 349 8.0 14.5 0.00 0.00 0.00 94 1006.1
20260505212504 15 37 6.4 12.9 0.00 0.00 0.00 94 1005.9
20260505212004 15 255 6.4 16.1 0.00 0.00 0.00 94 1006.0
20260505211504 15 206 6.4 16.1 0.00 0.00 0.00 94 1005.8
20260505211004 15 350 4.8 16.1 0.00 0.00 0.00 93 1005.7
20260505210504 15 323 6.4 14.5 0.00 0.00 0.00 93 1006.1
20260505210007 15 337 4.8 9.7 0.00 0.00 0.00 93 1005.9
20260505205504 15 339 4.8 11.3 0.00 0.00 0.00 93 1006.3
20260505205004 15 253 4.8 11.3 0.00 0.00 0.00 93 1006.1
20260505204504 15 347 1.6 9.7 0.00 0.00 0.00 93 1006.0
20260505204005 15 68 3.2 9.7 0.00 0.00 0.00 93 1006.3
20260505203504 15 73 3.2 12.9 0.00 0.00 0.00 93 1006.4
20260505202505 15 22 4.8 11.3 0.00 0.00 0.00 93 1006.4
20260505202004 15 338 4.8 11.3 0.00 0.00 0.00 93 1006.4
20260505201507 15 356 4.8 11.3 0.00 0.00 0.00 93 1006.2
20260505201004 15 216 3.2 8.0 0.00 0.00 0.00 92 1006.4
20260505200504 15 326 4.8 8.0 0.00 0.00 0.00 92 1006.2
20260505200004 15 330 3.2 9.7 0.00 0.00 0.00 92 1006.2
20260505195504 15 306 3.2 9.7 0.00 0.00 0.00 92 1006.3
20260505195004 15 355 3.2 11.3 0.00 0.00 0.00 92 1006.2
20260505194504 15 59 4.8 12.9 0.00 0.00 0.00 92 1006.3
20260505194005 15 61 4.8 12.9 0.00 0.00 0.00 91 1006.3
20260505193504 15 271 8.0 12.9 0.00 0.00 0.00 91 1006.5
20260505193009 15 27 4.8 12.9 0.00 0.00 0.00 92 1006.4
20260505192505 15 325 3.2 9.7 0.00 0.00 0.00 91 1006.5
20260505192004 15 239 3.2 8.0 0.00 0.00 0.00 92 1006.5
20260505191504 15 355 1.6 8.0 0.00 0.00 0.00 92 1006.3
20260505191004 15 332 1.6 8.0 0.00 0.00 0.00 92 1006.4
20260505190504 15 338 1.6 4.8 0.00 0.00 0.00 92 1006.4
20260505190005 15 342 3.2 4.8 0.00 0.00 0.00 92 1006.5
20260505185505 15 349 0.0 3.2 0.00 0.00 0.00 92 1006.2
20260505185005 14 17 0.0 4.8 0.00 0.00 0.00 93 1006.4
20260505184007 15 296 1.6 4.8 0.00 0.00 0.00 92 1006.6
20260505183504 15 43 1.6 8.0 0.00 0.00 0.00 91 1006.5
20260505183005 15 3 1.6 8.0 0.00 0.00 0.00 89 1006.5
20260505182504 16 299 0.0 3.2 0.00 0.00 0.00 88 1006.3
20260505182004 15 281 0.0 4.8 0.00 0.00 0.00 89 1006.4
20260505181504 15 333 1.6 4.8 0.00 0.00 0.00 91 1006.4
20260505181004 15 10 1.6 4.8 0.00 0.00 0.00 91 1006.6
20260505180506 15 14 1.6 4.8 0.00 0.00 0.00 90 1006.8
20260505180004 15 348 1.6 8.0 0.00 0.00 0.00 89 1006.8
20260505175504 15 11 1.6 8.0 0.00 0.00 0.00 89 1006.7
20260505175005 15 350 3.2 8.0 0.00 0.00 0.00 90 1006.9
20260505174504 15 22 3.2 8.0 0.00 0.00 0.00 90 1006.7
20260505174004 15 351 3.2 8.0 0.00 0.00 0.00 89 1006.6
20260505173504 15 310 1.6 8.0 0.00 0.00 0.00 89 1006.8
20260505173005 15 21 3.2 8.0 0.00 0.00 0.00 89 1006.7
20260505172504 15 306 4.8 8.0 0.00 0.00 0.00 89 1006.6
20260505172005 15 340 3.2 8.0 0.00 0.00 0.00 88 1006.7
20260505171505 15 316 3.2 8.0 0.00 0.00 0.00 89 1006.7
20260505171004 15 341 1.6 8.0 0.00 0.00 0.00 89 1006.7
20260505170504 15 310 1.6 12.9 0.00 0.00 0.00 89 1006.7
20260505170007 15 64 3.2 12.9 0.00 0.00 0.00 89 1006.7
20260505165504 15 49 6.4 12.9 0.00 0.00 0.00 87 1006.6
20260505165004 16 154 6.4 14.5 0.00 0.00 0.00 86 1006.7
20260505164505 16 281 6.4 14.5 0.00 0.00 0.00 85 1006.6
20260505153005 16 177 3.2 9.7 0.00 0.00 0.00 84 1006.9
20260505152504 16 357 3.2 8.0 0.00 0.00 0.00 84 1006.8
20260505140504 15 61 0.0 3.2 0.00 0.00 0.00 86 1007.1
20260505115508 12 117 0.0 1.6 0.00 0.00 0.00 99 1008.1
20260505115005 12 112 0.0 1.6 0.00 0.00 0.00 99 1008.2
20260505114504 12 112 0.0 1.6 0.00 0.00 0.00 99 1008.3
20260505113504 12 135 0.0 0.0 0.00 0.00 0.00 99 1008.9
20260505113005 12 131 0.0 0.0 0.00 0.00 0.00 99 1009.0
20260505112504 12 135 0.0 0.0 0.00 0.00 0.00 99 1008.8
20260505112004 12 135 0.0 0.0 0.00 0.00 0.00 99 1008.9
20260505111507 12 135 0.0 0.0 0.00 0.00 0.00 99 1008.7
20260505111005 12 202 0.0 1.6 0.00 0.00 0.00 99 1008.8
20260505110504 12 202 0.0 3.2 0.00 0.00 0.00 99 1008.8
20260505102005 12 112 0.0 1.6 0.00 0.00 0.00 99 1008.4
20260505101505 12 94 0.0 0.0 0.00 0.00 0.00 99 1008.9
20260505101004 12 133 0.0 0.0 0.00 0.00 0.00 99 1008.9
20260505100505 12 135 0.0 1.6 0.00 0.00 0.00 99 1008.6
20260505100007 12 135 0.0 1.6 0.00 0.00 0.00 99 1008.7
20260505095505 12 151 0.0 0.0 0.00 0.00 0.00 99 1008.8
20260505094005 12 112 0.0 1.6 0.00 0.00 0.00 99 1008.8
20260505093505 12 135 1.6 1.6 0.00 0.03 0.00 99 1008.9
20260505093004 12 140 0.0 1.6 0.00 0.03 0.00 99 1008.8
20260505092505 12 90 0.0 0.0 0.00 0.03 0.00 99 1008.9
20260505092007 12 112 0.0 0.0 0.00 0.03 0.00 99 1008.8
20260505091504 12 112 0.0 0.0 0.00 0.03 0.00 99 1008.8
20260505091005 12 135 0.0 0.0 0.00 0.03 0.00 99 1008.9
20260505090504 12 135 0.0 0.0 0.00 0.03 0.00 99 1009.0
20260505090005 12 112 0.0 0.0 0.00 0.03 0.00 99 1009.2
20260505085504 12 112 0.0 0.0 0.00 0.03 0.00 99 1009.4
20260505085005 12 101 0.0 0.0 0.00 0.03 0.00 99 1009.2
20260505084505 12 135 0.0 0.0 0.00 0.03 0.00 99 1009.2
20260505083507 12 135 0.0 1.6 0.00 0.03 0.00 99 1009.2
20260505083005 12 105 0.0 1.6 0.00 0.05 0.00 99 1009.4
20260505082505 12 112 0.0 1.6 0.00 0.05 0.00 99 1009.3
20260505082004 12 147 0.0 1.6 0.00 0.05 0.00 99 1009.3
20260505081505 12 135 0.0 1.6 0.00 0.05 0.00 99 1009.3
20260505081004 12 291 0.0 3.2 0.00 0.05 0.00 99 1009.6
20260505080505 12 147 0.0 3.2 0.00 0.05 0.00 99 1009.3
20260505080004 12 174 1.6 3.2 0.00 0.05 0.00 99 1009.2
20260505075507 12 135 0.0 1.6 0.00 0.05 0.00 99 1009.2
20260505075005 12 135 0.0 1.6 0.00 0.05 0.00 99 1009.2
20260505074505 12 225 0.0 0.0 0.00 0.05 0.00 99 1009.1
20260505074005 12 135 0.0 0.0 0.00 0.05 0.00 99 1009.0
20260505073505 12 266 0.0 0.0 0.00 0.05 0.00 99 1008.9
20260505073005 12 22 0.0 0.0 0.00 0.05 0.00 99 1008.8
20260505072504 12 22 0.0 0.0 0.00 0.05 0.00 99 1008.7
20260505072004 12 22 0.0 0.0 0.00 0.05 0.00 99 1008.8
20260505071504 12 45 0.0 1.6 0.00 0.05 0.00 99 1008.6
20260505071004 12 22 0.0 1.6 0.00 0.05 0.00 99 1008.6
20260505070507 12 20 0.0 1.6 0.00 0.05 0.00 99 1008.9